Bedford, MA

3:57 AM EST on January 24, 2018 (GMT -0500)
Hanscom

Weather History for KBED - May, 2013

Change the Weather History Date:

Monday, May 27, 2013

  Actual Average Record
Temperature  
Mean Temperature 55 °F -  
Max Temperature 71 °F 72 °F 89 °F (1959)
Min Temperature 39 °F 46 °F 32 °F (1969)
Degree Days  
Heating Degree Days 10    
Growing Degree Days 5 (Base 50)    
Moisture  
Dew Point 39 °F    
Average Humidity 61    
Maximum Humidity 100    
Minimum Humidity 27    
Precipitation  
Precipitation 0.00 in - - ()
Sea Level Pressure  
Sea Level Pressure 30.14 in    
Wind  
Wind Speed 7 mph (West)    
Max Wind Speed 18 mph    
Max Gust Speed 24 mph    
Visibility 10 miles    
Events      
Averages and records for this station are not official NWS values.
T = Trace of Precipitation, MM = Missing Value Source: NWS Daily Summary

Daily Weather History Graph

Daily Weather History Graph

Search for Another Location

Airport or City:

Trip Planner

Search our weather history database for the weather conditions in past years. The results will help you decide how hot, cold, wet, or windy it might be!

Date:

Astronomy

May. 27, 2013 Rise Set
Actual Time 5:13 AM EDT 8:11 PM EDT
Civil Twilight 4:39 AM EDT 8:45 PM EDT
Nautical Twilight 3:57 AM EDT 9:28 PM EDT
Astronomical Twilight 3:06 AM EDT 10:18 PM EDT
Moon 10:47 PM EDT (5/27) 7:47 AM EDT (5/27)
Length of Visible Light 16h 05m
Length of Day
14h 58m
Waning Gibbous, 91% of the Moon is Illuminated
May 27
Waning Gibbous
May 31
Last Quarter
Jun 8
New
Jun 16
First Quarter
Jun 23
Full

Hourly Weather History & Observations

Time (EDT) Temp. Windchill Dew Point Humidity Pressure Visibility Wind Dir Wind Speed Gust Speed Precip Events Conditions
12:56 AM 42.1 °F 37.7 °F 39.0 °F 89% 30.14 in 10.0 mi WSW 6.9 mph - N/A   Clear
1:56 AM 43.0 °F 38.2 °F 39.9 °F 89% 30.14 in 10.0 mi WSW 8.1 mph - N/A   Clear
2:56 AM 39.9 °F 37.8 °F 39.0 °F 97% 30.14 in 10.0 mi West 3.5 mph - N/A   Clear
3:56 AM 39.0 °F 36.8 °F 37.9 °F 96% 30.14 in 10.0 mi WSW 3.5 mph - N/A   Clear
4:56 AM 39.0 °F 36.8 °F 39.0 °F 100% 30.14 in 10.0 mi WSW 3.5 mph - N/A   Clear
5:56 AM 39.9 °F - 39.0 °F 97% 30.15 in 10.0 mi Calm Calm - N/A   Clear
6:56 AM 45.0 °F 42.6 °F 42.1 °F 90% 30.16 in 10.0 mi WSW 4.6 mph - N/A   Clear
7:56 AM 53.1 °F - 41.0 °F 64% 30.16 in 10.0 mi West 11.5 mph 17.3 mph N/A   Partly Cloudy
8:56 AM 57.9 °F - 39.9 °F 51% 30.16 in 10.0 mi West 10.4 mph 19.6 mph N/A   Clear
9:56 AM 61.0 °F - 39.0 °F 44% 30.16 in 10.0 mi West 11.5 mph 20.7 mph N/A   Partly Cloudy
10:56 AM 64.0 °F - 37.0 °F 37% 30.15 in 10.0 mi West 15.0 mph 24.2 mph N/A   Partly Cloudy
11:56 AM 64.9 °F - 34.0 °F 32% 30.14 in 10.0 mi WNW 13.8 mph 23.0 mph N/A   Partly Cloudy
12:56 PM 68.0 °F - 36.0 °F 31% 30.13 in 10.0 mi NW 18.4 mph 24.2 mph N/A   Partly Cloudy
1:56 PM 69.1 °F - 35.1 °F 29% 30.12 in 10.0 mi West 12.7 mph 21.9 mph N/A   Partly Cloudy
2:56 PM 70.0 °F - 36.0 °F 29% 30.11 in 10.0 mi West 8.1 mph - N/A   Scattered Clouds
3:56 PM 71.1 °F - 35.1 °F 27% 30.11 in 10.0 mi NW 12.7 mph 20.7 mph N/A   Clear
4:56 PM 70.0 °F - 35.1 °F 28% 30.11 in 10.0 mi NW 11.5 mph 21.9 mph N/A   Clear
5:56 PM 69.1 °F - 35.1 °F 29% 30.10 in 10.0 mi West 9.2 mph - N/A   Partly Cloudy
6:56 PM 68.0 °F - 36.0 °F 31% 30.12 in 10.0 mi NW 6.9 mph - N/A   Clear
7:56 PM 63.0 °F - 37.0 °F 38% 30.13 in 10.0 mi Calm Calm - N/A   Clear
8:56 PM 55.0 °F - 43.0 °F 64% 30.15 in 10.0 mi Calm Calm - N/A   Clear
9:56 PM 50.0 °F - 44.1 °F 80% 30.17 in 10.0 mi Calm Calm - N/A   Clear
10:56 PM 46.9 °F - 45.0 °F 93% 30.19 in 10.0 mi NNE 3.5 mph - N/A   Clear
11:56 PM 45.0 °F - 44.1 °F 97% 30.21 in 10.0 mi Calm Calm - N/A   Clear